TimeCST,TemperatureF,Dew PointF,Humidity,Sea Level PressureIn,VisibilityMPH,Wind Direction,Wind SpeedMPH,Gust SpeedMPH,PrecipitationIn,Events,Conditions,WindDirDegrees,DateUTC
12:14 AM,19.4,12.2,74,30.09,4.0,Calm,Calm,-,N/A,,Haze,0,2012-12-14 06:14:00
12:34 AM,19.4,14.0,80,30.09,3.0,Calm,Calm,-,N/A,,Haze,0,2012-12-14 06:34:00
12:54 AM,15.8,10.4,79,30.09,5.0,Calm,Calm,-,N/A,,Haze,0,2012-12-14 06:54:00
1:14 AM,15.8,10.4,79,30.09,5.0,Calm,Calm,-,N/A,,Haze,0,2012-12-14 07:14:00
1:34 AM,17.6,10.4,73,30.09,5.0,Calm,Calm,-,N/A,,Haze,0,2012-12-14 07:34:00
1:54 AM,17.6,10.4,73,30.09,4.0,Calm,Calm,-,N/A,,Haze,0,2012-12-14 07:54:00
2:14 AM,17.6,10.4,73,30.09,5.0,Calm,Calm,-,N/A,,Haze,0,2012-12-14 08:14:00
2:33 AM,17.6,10.4,73,30.09,5.0,Calm,Calm,-,N/A,,Haze,0,2012-12-14 08:33:00
2:54 AM,17.6,12.2,79,30.09,5.0,Calm,Calm,-,N/A,,Haze,0,2012-12-14 08:54:00
3:14 AM,17.6,12.2,79,30.09,7.0,Calm,Calm,-,N/A,,Clear,0,2012-12-14 09:14:00
3:54 AM,17.6,12.2,79,30.08,5.0,Calm,Calm,-,N/A,,Haze,0,2012-12-14 09:54:00
4:14 AM,19.4,12.2,74,30.08,7.0,Calm,Calm,-,N/A,,Clear,0,2012-12-14 10:14:00
4:33 AM,17.6,10.4,73,30.07,5.0,Calm,Calm,-,N/A,,Haze,0,2012-12-14 10:33:00
4:54 AM,19.4,12.2,74,30.06,5.0,East,4.6,-,N/A,,Haze,90,2012-12-14 10:54:00
5:14 AM,21.2,15.8,80,30.05,7.0,East,6.9,-,N/A,,Clear,100,2012-12-14 11:14:00
5:34 AM,23.0,17.6,80,30.05,7.0,East,4.6,-,N/A,,Clear,90,2012-12-14 11:34:00
5:54 AM,23.0,17.6,80,30.05,7.0,East,4.6,-,N/A,,Clear,100,2012-12-14 11:54:00
6:14 AM,23.0,17.6,80,30.05,7.0,SE,3.5,-,N/A,,Clear,130,2012-12-14 12:14:00
6:34 AM,24.8,17.6,74,30.05,7.0,ESE,8.1,-,N/A,,Clear,120,2012-12-14 12:34:00
6:53 AM,26.6,17.6,69,30.04,10.0,ESE,6.9,-,N/A,,Clear,120,2012-12-14 12:53:00
7:14 AM,26.6,17.6,69,30.04,10.0,ESE,8.1,-,N/A,,Clear,120,2012-12-14 13:14:00
7:33 AM,26.6,17.6,69,30.04,10.0,ESE,11.5,-,N/A,,Clear,120,2012-12-14 13:33:00
7:54 AM,26.6,17.6,69,30.04,10.0,ESE,9.2,-,N/A,,Clear,120,2012-12-14 13:54:00
8:14 AM,28.4,17.6,64,30.04,10.0,ESE,9.2,-,N/A,,Clear,120,2012-12-14 14:14:00
8:34 AM,28.4,17.6,64,30.04,10.0,SE,8.1,-,N/A,,Clear,130,2012-12-14 14:34:00
8:54 AM,28.4,19.4,69,30.04,10.0,SE,9.2,-,N/A,,Clear,130,2012-12-14 14:54:00
9:14 AM,30.2,19.4,64,30.03,10.0,ESE,9.2,-,N/A,,Clear,120,2012-12-14 15:14:00
9:34 AM,30.2,19.4,64,30.03,10.0,SE,8.1,-,N/A,,Clear,130,2012-12-14 15:34:00
9:54 AM,32.0,19.4,60,30.02,10.0,ESE,9.2,-,N/A,,Clear,120,2012-12-14 15:54:00
10:14 AM,33.8,21.2,60,30.02,10.0,SE,10.4,-,N/A,,Clear,130,2012-12-14 16:14:00
10:34 AM,37.4,21.2,52,30.01,10.0,SE,11.5,-,N/A,,Clear,130,2012-12-14 16:34:00
10:54 AM,37.4,21.2,52,30.00,10.0,SE,12.7,-,N/A,,Clear,130,2012-12-14 16:54:00
11:14 AM,37.4,21.2,52,29.99,10.0,SE,12.7,-,N/A,,Clear,130,2012-12-14 17:14:00
11:34 AM,39.2,23.0,52,29.98,10.0,SE,10.4,-,N/A,,Clear,130,2012-12-14 17:34:00
11:54 AM,39.2,23.0,52,29.97,10.0,SE,12.7,-,N/A,,Clear,130,2012-12-14 17:54:00
12:14 PM,39.2,24.8,56,29.96,10.0,SE,13.8,-,N/A,,Clear,130,2012-12-14 18:14:00
12:34 PM,41.0,24.8,53,29.96,10.0,SE,11.5,-,N/A,,Clear,130,2012-12-14 18:34:00
12:54 PM,42.8,24.8,49,29.95,10.0,SE,10.4,-,N/A,,Clear,130,2012-12-14 18:54:00
1:14 PM,42.8,24.8,49,29.93,10.0,SE,11.5,-,N/A,,Clear,130,2012-12-14 19:14:00
1:34 PM,42.8,24.8,49,29.92,10.0,SE,10.4,-,N/A,,Clear,130,2012-12-14 19:34:00
1:54 PM,42.8,26.6,53,29.92,10.0,SE,11.5,-,N/A,,Clear,130,2012-12-14 19:54:00
2:14 PM,41.0,28.4,61,29.90,10.0,ESE,10.4,-,N/A,,Clear,110,2012-12-14 20:14:00
2:34 PM,41.0,26.6,57,29.89,10.0,East,10.4,-,N/A,,Clear,100,2012-12-14 20:34:00
2:54 PM,41.0,26.6,57,29.89,10.0,ESE,11.5,-,N/A,,Clear,120,2012-12-14 20:54:00
3:14 PM,42.8,26.6,53,29.87,10.0,ESE,11.5,-,N/A,,Clear,120,2012-12-14 21:14:00
3:34 PM,41.0,26.6,57,29.87,10.0,ESE,15.0,20.7,N/A,,Clear,120,2012-12-14 21:34:00
3:54 PM,41.0,26.6,57,29.87,10.0,ESE,15.0,21.9,N/A,,Clear,120,2012-12-14 21:54:00
4:14 PM,41.0,28.4,61,29.87,10.0,ESE,15.0,-,N/A,,Clear,110,2012-12-14 22:14:00
4:34 PM,41.0,28.4,61,29.86,10.0,ESE,13.8,-,N/A,,Clear,110,2012-12-14 22:34:00
4:54 PM,41.0,28.4,61,29.85,10.0,ESE,12.7,-,N/A,,Clear,110,2012-12-14 22:54:00
5:14 PM,41.0,26.6,57,29.85,10.0,ESE,15.0,20.7,N/A,,Clear,110,2012-12-14 23:14:00
5:34 PM,41.0,28.4,61,29.85,10.0,ESE,13.8,19.6,N/A,,Clear,120,2012-12-14 23:34:00
5:54 PM,41.0,28.4,61,29.86,10.0,ESE,15.0,-,N/A,,Clear,120,2012-12-14 23:54:00
6:14 PM,41.0,28.4,61,29.86,10.0,ESE,12.7,19.6,N/A,,Clear,120,2012-12-15 00:14:00
6:34 PM,41.0,28.4,61,29.86,10.0,ESE,13.8,-,N/A,,Clear,120,2012-12-15 00:34:00
6:54 PM,41.0,28.4,61,29.85,10.0,SE,16.1,-,N/A,,Clear,130,2012-12-15 00:54:00
7:14 PM,39.2,28.4,65,29.84,10.0,SE,16.1,-,N/A,,Clear,130,2012-12-15 01:14:00
7:34 PM,39.2,28.4,65,29.84,10.0,SE,16.1,21.9,N/A,,Clear,130,2012-12-15 01:34:00
7:54 PM,39.2,28.4,65,29.82,10.0,SE,17.3,-,N/A,,Clear,130,2012-12-15 01:54:00
8:14 PM,41.0,28.4,61,29.82,10.0,SE,16.1,24.2,N/A,,Clear,130,2012-12-15 02:14:00
8:34 PM,41.0,28.4,61,29.81,10.0,SE,18.4,-,N/A,,Clear,130,2012-12-15 02:34:00
8:54 PM,41.0,28.4,61,29.80,10.0,SE,18.4,23.0,N/A,,Clear,130,2012-12-15 02:54:00
9:14 PM,42.8,28.4,57,29.80,10.0,SE,16.1,21.9,N/A,,Scattered Clouds,130,2012-12-15 03:14:00
9:34 PM,42.8,28.4,57,29.80,10.0,SE,17.3,24.2,N/A,,Overcast,140,2012-12-15 03:34:00
9:54 PM,42.8,28.4,57,29.79,10.0,SE,16.1,21.9,N/A,,Overcast,140,2012-12-15 03:54:00
10:14 PM,42.8,28.4,57,29.78,10.0,SE,17.3,-,N/A,,Overcast,130,2012-12-15 04:14:00
10:34 PM,42.8,28.4,57,29.77,10.0,SE,16.1,-,N/A,,Mostly Cloudy,140,2012-12-15 04:34:00
10:54 PM,42.8,28.4,57,29.77,10.0,SE,13.8,-,N/A,,Overcast,130,2012-12-15 04:54:00
11:14 PM,42.8,28.4,57,29.76,10.0,SE,12.7,-,N/A,,Overcast,130,2012-12-15 05:14:00
11:34 PM,42.8,28.4,57,29.76,10.0,SE,12.7,17.3,N/A,,Overcast,130,2012-12-15 05:34:00
11:54 PM,42.8,28.4,57,29.76,10.0,ESE,9.2,-,N/A,,Overcast,120,2012-12-15 05:54:00